PBO Station Position Time Series. Reference Frame : NAM14
Format Version,1.1.0
4-character ID,AB44
Station name,SkagwayUSCAK2005
Begin Date, 2005-08-16
End Date, 2019-10-07
Release Date, 2019-10-08
Reference position, 59.5280387114 North Latitude, -135.2282983255 East Longitude, 304.25055 meters elevation,
Date, North (mm), East (mm), Vertical (mm), North Std. Deviation (mm), East Std. Deviation (mm),              Vertical Std. Deviation (mm), Quality,
2005-08-16,0.00, 0.00, 0.00, 3.28, 2.16, 9.62, repro,
2005-08-17,-1.12, -0.76, 8.33, 3.13, 2.18, 9.58, repro,
2005-08-18,1.47, -1.87, 7.00, 3.34, 2.28, 9.73, repro,
2005-08-19,2.91, -0.45, 1.39, 3.08, 2.12, 9.07, repro,
2005-08-20,-2.57, 0.28, 6.59, 3.21, 2.17, 9.37, repro,
2005-08-21,-2.14, -0.94, 12.19, 3.26, 2.22, 9.51, repro,
2005-08-22,-0.58, 2.12, 2.48, 3.05, 2.13, 9.15, repro,
2005-08-23,-2.27, 0.35, 13.42, 3.05, 2.09, 8.98, repro,
2005-08-24,-4.02, 2.80, 18.01, 3.40, 2.40, 10.32, repro,
2005-08-25,-1.96, 1.57, 10.86, 2.97, 2.11, 8.99, repro,
2005-08-26,-1.35, -2.69, 12.59, 3.17, 2.20, 9.68, repro,
2005-08-27,-1.78, -1.35, 6.66, 3.13, 2.17, 9.30, repro,
2005-08-28,-0.47, -0.94, 16.05, 3.15, 2.19, 9.38, repro,
2005-08-29,-1.11, 0.82, 30.06, 2.87, 2.05, 8.89, repro,
2005-08-30,-1.12, 1.33, 14.10, 3.23, 2.17, 9.37, repro,
2005-08-31,-0.75, 0.87, 3.63, 3.41, 2.39, 10.10, repro,
2005-09-01,-0.30, -0.36, 6.15, 3.28, 2.19, 9.67, repro,
2005-09-02,-3.02, 1.01, 11.71, 3.11, 2.10, 9.48, repro,
2005-09-03,0.51, 0.74, 18.79, 3.16, 2.12, 9.64, repro,
2005-09-04,-3.28, 0.85, 16.47, 3.13, 2.18, 9.69, repro,
2005-09-05,2.01, -1.41, 19.95, 2.99, 2.06, 8.89, repro,
2005-09-06,-3.00, 1.03, 11.38, 3.32, 2.25, 10.00, repro,
2005-09-07,-0.22, -2.68, 19.12, 3.17, 2.20, 9.48, repro,
2005-09-08,-3.42, -0.67, 15.91, 3.23, 2.21, 9.47, repro,
2005-09-09,-3.15, 1.73, 14.94, 3.13, 2.21, 9.48, repro,
2005-09-10,-1.04, -0.22, 13.74, 3.02, 2.17, 9.69, repro,
2005-09-11,-1.12, 0.53, 9.17, 4.67, 3.06, 12.69, repro,
2005-09-12,0.42, -1.80, 9.06, 3.44, 2.34, 11.09, repro,
2005-09-13,1.24, -0.33, 12.96, 3.49, 2.38, 10.57, repro,
2005-09-14,-1.94, 0.08, 24.93, 3.19, 2.19, 9.91, repro,
2005-09-15,-1.98, 1.20, 21.71, 3.54, 2.42, 11.14, repro,
2005-09-16,-0.81, 0.74, 20.80, 2.97, 2.07, 9.29, repro,
2005-09-17,-0.51, -0.22, 11.90, 3.06, 2.18, 9.42, repro,
2005-09-18,-0.93, -0.73, 20.41, 3.06, 2.06, 9.26, repro,
2005-09-19,-1.76, 1.18, 23.98, 3.07, 2.11, 9.27, repro,
2005-09-20,-0.84, 0.25, 14.49, 2.85, 2.01, 8.82, repro,
2005-09-21,-4.29, 1.44, 16.36, 2.99, 2.05, 9.23, repro,
2005-09-22,-3.05, -1.45, 7.06, 3.01, 2.06, 8.97, repro,
2005-09-23,-0.30, -1.69, 8.19, 2.84, 1.98, 8.72, repro,
2005-09-24,3.40, 2.63, 20.77, 2.96, 2.08, 9.01, repro,
2005-09-25,-2.05, 0.77, 22.20, 3.07, 2.13, 9.67, repro,
2005-09-26,-2.46, 1.45, 19.57, 3.30, 2.27, 9.88, repro,
2005-09-27,-1.08, 0.48, 12.96, 3.01, 2.07, 9.05, repro,
2005-09-28,-3.19, 0.55, 27.39, 3.00, 2.06, 9.17, repro,
2005-09-29,-2.58, 0.14, 27.66, 3.02, 2.09, 9.13, repro,
2005-09-30,-1.25, -0.47, 16.26, 3.05, 2.12, 9.49, repro,
2005-10-01,-3.72, 2.17, 20.52, 2.94, 2.04, 9.07, repro,
2005-10-02,-2.53, -0.50, 7.84, 3.02, 2.05, 9.19, repro,
2005-10-03,-1.82, -0.22, 19.56, 2.98, 2.06, 9.13, repro,
2005-10-04,-1.99, -0.81, 15.70, 3.27, 2.37, 10.53, repro,
2005-10-05,1.07, -1.13, 14.65, 2.99, 2.12, 9.31, repro,
2005-10-06,-5.88, 1.95, 20.61, 3.33, 2.24, 9.49, repro,
2005-10-07,-4.69, 1.34, 16.80, 2.96, 2.05, 8.95, repro,
2005-10-08,-3.01, 1.03, 12.69, 3.26, 2.15, 9.88, repro,
2005-10-09,-1.74, 0.19, 10.38, 2.80, 2.00, 8.71, repro,
2005-10-10,-1.44, 1.77, 24.94, 2.96, 2.04, 8.96, repro,
2005-10-11,0.05, 1.49, 15.75, 3.01, 2.11, 9.14, repro,
2005-10-12,-2.39, 0.71, 18.63, 2.92, 2.05, 8.92, repro,
2005-10-13,0.38, -0.62, 15.16, 2.96, 2.08, 9.17, repro,
2005-10-14,-2.96, 0.91, 14.45, 2.77, 1.96, 8.63, repro,
2005-10-15,-1.90, -2.29, 15.74, 2.93, 2.05, 9.12, repro,
2005-10-16,-0.24, -0.43, 22.15, 3.15, 2.16, 9.31, repro,
2005-10-17,-3.42, -1.27, 24.01, 2.95, 2.07, 8.93, repro,
2005-10-18,2.68, 1.19, 22.88, 2.91, 2.03, 8.81, repro,
2005-10-19,-0.80, 0.60, 5.75, 2.95, 2.04, 9.02, repro,
2005-10-20,-5.47, 1.62, 12.04, 2.91, 2.01, 8.78, repro,
2005-10-21,-0.92, 0.05, 20.47, 3.07, 2.14, 9.40, repro,
2005-10-22,-1.38, 2.09, 16.20, 2.99, 2.10, 9.07, repro,
2005-10-23,-4.78, 1.72, 17.11, 2.86, 2.00, 8.80, repro,
2005-10-24,-2.46, 6.46, 8.60, 2.98, 2.08, 9.07, repro,
2005-10-25,-1.58, -0.59, 8.14, 3.04, 2.12, 9.52, repro,
2005-10-26,-4.70, 1.65, 17.72, 3.10, 2.14, 9.27, repro,
2005-10-27,-0.12, -0.28, 19.34, 2.91, 2.04, 8.92, repro,
2005-10-28,-1.96, -0.30, 22.66, 2.82, 1.98, 8.68, repro,
2005-10-29,-1.77, -0.42, 21.74, 2.99, 2.13, 9.05, repro,
2005-10-30,-0.44, 0.58, 13.68, 2.82, 2.00, 8.64, repro,
2005-10-31,0.34, -2.06, 3.50, 3.24, 2.19, 9.60, repro,
2005-11-01,-1.45, -0.56, 16.69, 3.05, 2.13, 9.18, repro,
2005-11-02,1.19, -2.04, 17.19, 3.42, 2.41, 9.92, repro,
2005-11-03,-0.08, -2.55, 19.52, 3.18, 2.21, 9.57, repro,
2005-11-04,-1.25, -0.79, 16.20, 3.05, 2.12, 9.07, repro,
2005-11-05,1.40, -0.76, 17.15, 3.12, 2.11, 9.04, repro,
2005-11-06,1.39, -1.93, 13.38, 3.22, 2.23, 9.35, repro,
2005-11-07,-0.87, 0.11, 20.54, 3.01, 2.14, 8.99, repro,
2005-11-08,-0.39, -1.39, 16.97, 3.06, 2.11, 9.09, repro,
2005-11-09,-3.43, 2.06, 3.95, 3.33, 2.26, 9.72, repro,
2005-11-10,-1.23, -0.66, 16.99, 3.46, 2.38, 10.05, repro,
2005-11-11,-3.41, -1.88, 21.70, 3.19, 2.25, 9.37, repro,
2005-11-12,-2.22, -1.96, 15.27, 2.89, 2.06, 8.72, repro,
2005-11-13,0.66, -3.92, 6.61, 3.31, 2.30, 9.87, repro,
2005-11-14,-0.31, -2.52, 1.55, 2.91, 2.09, 8.85, repro,
2005-11-15,-0.51, -0.02, -1.89, 2.94, 2.12, 8.85, repro,
2005-11-16,3.70, 1.23, 10.82, 2.89, 2.03, 8.84, repro,
2005-11-17,-2.13, 3.73, 23.11, 2.95, 2.06, 8.95, repro,
2005-11-18,-1.12, -1.34, 16.16, 2.81, 2.00, 8.63, repro,
2005-11-19,-3.93, 1.67, 13.20, 2.88, 2.01, 8.97, repro,
2005-11-20,-0.84, 2.24, 8.54, 2.84, 1.98, 8.80, repro,
2005-11-21,-1.73, 1.27, 17.81, 2.99, 2.10, 9.30, repro,
2005-11-22,-4.12, 1.58, 13.57, 3.08, 2.15, 9.29, repro,
2005-11-23,-5.28, 2.45, 14.54, 2.86, 2.00, 8.78, repro,
2005-11-24,-5.86, 0.65, 13.78, 2.89, 2.02, 8.87, repro,
2005-11-25,-4.66, 1.81, 16.07, 3.10, 2.12, 9.24, repro,
2005-11-26,-2.10, -1.50, 14.77, 2.92, 2.04, 9.03, repro,
2005-11-27,-1.93, -0.17, 7.94, 2.84, 2.02, 8.74, repro,
2005-11-28,-1.99, -0.65, 8.77, 2.83, 2.01, 9.03, repro,
2005-11-29,-0.66, -3.33, 4.32, 2.79, 2.00, 8.58, repro,
2005-11-30,1.18, -3.36, -2.94, 3.13, 2.18, 9.58, repro,
2005-12-01,0.28, -2.55, -1.64, 2.89, 2.10, 9.19, repro,
2005-12-02,-1.61, -1.94, 9.45, 2.88, 2.07, 9.05, repro,
2005-12-03,0.49, -1.85, 2.22, 2.82, 2.04, 8.76, repro,
2005-12-04,-0.03, -2.10, 6.03, 2.83, 1.98, 8.77, repro,
2005-12-05,-0.58, -0.83, -2.82, 3.01, 2.15, 9.07, repro,
2005-12-06,-2.28, 0.62, 3.92, 2.93, 2.07, 9.08, repro,
2005-12-07,-1.68, -0.35, 4.01, 2.96, 2.07, 9.07, repro,
2005-12-08,-1.84, 3.46, 22.95, 2.98, 2.11, 9.10, repro,
2005-12-09,-2.29, 1.15, 7.60, 2.86, 1.98, 8.73, repro,
2005-12-10,-3.86, 1.05, 10.61, 2.84, 2.03, 8.84, repro,
2005-12-11,-4.02, 0.95, 0.54, 2.98, 2.09, 9.32, repro,
2005-12-12,-2.54, 1.46, -6.84, 2.96, 2.07, 9.09, repro,
2005-12-13,1.77, 3.16, -6.12, 2.80, 2.00, 8.78, repro,
2005-12-14,-5.27, 1.22, -3.09, 2.82, 1.99, 8.74, repro,
2005-12-15,0.90, -0.27, -0.14, 3.12, 2.14, 9.39, repro,
2005-12-16,-1.50, 0.50, 5.03, 2.92, 2.04, 8.90, repro,
2005-12-17,-6.23, 0.91, -7.59, 2.82, 1.99, 8.75, repro,
2005-12-18,-1.29, -1.17, -1.13, 3.01, 2.20, 9.64, repro,
2005-12-19,-2.10, -0.98, -0.04, 3.12, 2.16, 9.56, repro,
2005-12-20,-0.58, -2.06, 4.93, 3.11, 2.29, 9.66, repro,
2005-12-21,0.17, -0.69, 10.97, 3.01, 2.13, 9.24, repro,
2005-12-22,-3.80, 0.86, 13.63, 2.98, 2.08, 9.13, repro,
2005-12-23,-4.00, 1.35, 5.60, 3.08, 2.18, 9.49, repro,
2005-12-24,-0.97, -0.05, 5.16, 3.09, 2.26, 9.81, repro,
2005-12-25,-2.79, 1.31, 5.70, 2.87, 2.09, 9.12, repro,
2005-12-26,-3.95, -0.24, 13.06, 2.90, 2.09, 8.94, repro,
2005-12-27,-0.99, -1.47, 13.29, 3.04, 2.23, 9.63, repro,
2005-12-28,-2.19, -0.03, 3.51, 3.03, 2.18, 9.13, repro,
2005-12-29,-2.46, 1.54, -7.72, 3.05, 2.39, 10.55, repro,
2005-12-30,1.17, -1.48, 10.62, 3.08, 2.31, 10.08, repro,
2005-12-31,-2.66, 0.45, 19.55, 2.92, 2.14, 9.21, repro,
2006-01-01,-3.52, -0.92, 17.47, 2.84, 2.14, 8.99, repro,
2006-01-02,-1.25, -1.52, 17.10, 2.92, 2.09, 8.74, repro,
2006-01-03,-4.48, 1.77, 8.66, 3.13, 2.44, 10.64, repro,
2006-01-04,-1.43, -1.51, -4.82, 2.97, 2.26, 10.14, repro,
2006-01-05,-2.38, 1.33, 1.40, 2.77, 2.06, 9.43, repro,
2006-01-06,-1.79, -0.35, 1.27, 2.91, 2.21, 9.51, repro,
2006-01-07,-2.63, -2.30, 2.50, 3.18, 2.41, 10.60, repro,
2006-01-08,-2.78, -0.10, 7.50, 2.87, 2.11, 9.30, repro,
2006-01-09,-2.30, -0.89, 7.31, 2.95, 2.20, 9.63, repro,
2006-01-10,-0.88, 0.52, 10.16, 3.08, 2.24, 9.81, repro,
2006-01-11,-1.97, -0.07, 1.49, 2.96, 2.13, 9.10, repro,
2006-01-12,-1.84, -1.95, -5.51, 2.94, 2.11, 9.31, repro,
2006-01-13,-2.13, -0.35, 0.32, 2.89, 2.19, 9.54, repro,
2006-01-14,0.36, -1.34, 0.59, 2.82, 2.03, 8.67, repro,
2006-01-15,-1.48, -0.03, -0.15, 2.84, 2.05, 8.81, repro,
2006-01-16,-1.85, -3.47, 1.06, 2.90, 2.10, 8.83, repro,
2006-01-17,-0.03, -1.73, 6.73, 3.10, 2.21, 9.26, repro,
2006-01-18,-3.74, -1.02, 11.35, 3.19, 2.30, 9.59, repro,
2006-01-19,-1.90, -0.84, 0.75, 2.88, 2.05, 8.81, repro,
2006-01-20,-1.12, -1.27, 2.70, 3.04, 2.11, 9.11, repro,
2006-01-21,2.40, 0.07, 0.20, 2.94, 2.08, 8.95, repro,
2006-01-22,-2.37, 2.46, 11.45, 2.94, 2.10, 8.86, repro,
2006-01-23,0.43, 1.06, 10.84, 2.90, 2.08, 9.03, repro,
2006-01-24,0.06, -2.37, -2.73, 2.91, 2.07, 8.85, repro,
2006-01-25,-1.18, -1.99, 3.54, 2.78, 1.99, 8.60, repro,
2006-01-26,-2.63, -1.85, 0.60, 2.94, 2.06, 9.07, repro,
2006-01-27,-0.60, -2.39, 3.53, 3.00, 2.11, 8.91, repro,
2006-01-28,-1.25, -1.62, 7.04, 3.11, 2.22, 9.63, repro,
2006-01-29,-0.12, -0.94, 7.55, 2.81, 2.01, 8.60, repro,
2006-01-30,-0.06, -0.41, 0.67, 2.97, 2.06, 8.74, repro,
2006-01-31,-2.82, 0.23, 10.48, 2.83, 2.03, 8.81, repro,
2006-02-01,-1.22, -0.76, 7.62, 2.92, 2.05, 8.80, repro,
2006-02-02,-2.71, 1.15, 16.07, 2.80, 1.95, 8.50, repro,
2006-02-03,-2.17, -0.63, 2.86, 2.87, 2.07, 8.66, repro,
2006-02-04,-2.64, -0.01, 0.69, 2.86, 2.05, 8.82, repro,
2006-02-05,-1.62, 0.86, -1.90, 2.76, 1.99, 8.45, repro,
2006-02-06,-3.33, 1.28, -4.77, 3.08, 2.21, 9.25, repro,
2006-02-07,-2.59, -1.61, -4.22, 2.95, 2.09, 8.81, repro,
2006-02-08,-4.14, 0.17, 2.07, 2.92, 2.05, 8.82, repro,
2006-02-09,-4.78, 0.65, -10.15, 3.00, 2.12, 8.78, repro,
2006-02-10,-3.89, 0.30, -14.44, 3.17, 2.20, 9.21, repro,
2006-02-11,-2.09, -0.14, -17.37, 2.83, 1.99, 8.64, repro,
2006-02-12,0.81, -1.47, -11.46, 2.89, 1.99, 8.68, repro,
2006-02-13,-1.61, -0.72, -1.00, 2.83, 1.99, 8.76, repro,
2006-02-14,-2.18, -0.41, -16.33, 2.82, 1.97, 8.73, repro,
2006-02-15,-3.61, -1.45, -4.11, 3.00, 2.05, 8.78, repro,
2006-02-16,-2.50, 0.15, -14.84, 2.84, 2.01, 8.87, repro,
2006-02-17,-1.51, 0.19, -19.60, 2.82, 1.98, 8.73, repro,
2006-02-18,-3.02, -0.98, -14.61, 3.07, 2.08, 8.99, repro,
2006-02-19,-2.26, -2.07, -6.72, 2.78, 1.98, 8.58, repro,
2006-02-20,-1.90, 4.47, -19.38, 2.89, 1.99, 8.88, repro,
2006-02-21,-2.90, -2.57, -0.37, 2.90, 1.98, 8.61, repro,
2006-02-22,-2.67, -2.05, -1.72, 2.93, 2.02, 8.74, repro,
2006-02-23,-1.86, -2.33, -8.07, 2.85, 1.97, 8.60, repro,
2006-02-24,-2.55, -2.60, -11.34, 2.87, 1.97, 8.63, repro,
2006-02-25,-0.61, -1.68, -13.79, 2.83, 2.01, 8.61, repro,
2006-02-26,-2.92, -1.51, 0.31, 2.84, 1.93, 8.40, repro,
2006-02-27,-2.84, -1.08, 13.86, 2.81, 1.93, 8.40, repro,
2006-02-28,-1.22, -0.50, 7.00, 3.08, 2.05, 8.94, repro,
2006-03-01,-1.70, -0.16, 6.68, 3.18, 2.14, 9.48, repro,
2006-03-02,0.07, -1.51, -9.93, 2.92, 1.98, 8.59, repro,
2006-03-03,-0.69, -1.59, 1.83, 2.85, 1.97, 8.45, repro,
2006-03-04,-1.24, -1.44, 0.74, 3.04, 2.07, 8.76, repro,
2006-03-05,-1.95, -0.13, -0.46, 2.87, 1.96, 8.63, repro,
2006-03-06,-3.47, 0.00, 5.07, 2.87, 1.96, 8.72, repro,
2006-03-07,-2.08, -1.26, 0.79, 2.99, 2.10, 9.14, repro,
2006-03-08,-2.93, -1.68, 9.68, 2.87, 1.96, 8.47, repro,
2006-03-09,-1.25, -2.87, 7.56, 2.95, 2.02, 8.68, repro,
2006-03-10,-2.34, -1.40, 1.30, 2.86, 1.97, 8.57, repro,
2006-03-11,-2.23, -0.89, -0.60, 2.94, 2.01, 8.79, repro,
2006-03-12,-4.06, -1.70, 3.66, 3.14, 2.16, 9.29, repro,
2006-03-13,-2.63, -1.25, -4.95, 2.95, 2.02, 8.83, repro,
2006-03-14,-2.57, -3.06, 0.40, 3.11, 2.09, 9.04, repro,
2006-03-15,-4.90, -1.13, -0.37, 3.30, 2.16, 9.48, repro,
2006-03-16,-1.32, -0.55, -7.77, 3.09, 2.08, 9.14, repro,
2006-03-17,-2.98, 0.82, -0.79, 2.98, 1.99, 8.86, repro,
2006-03-18,-1.80, -1.01, -11.53, 3.05, 2.03, 9.21, repro,
2006-03-19,-2.16, -0.02, -4.24, 3.13, 2.09, 9.42, repro,
2006-03-20,-2.54, -0.27, -0.90, 3.04, 2.05, 8.97, repro,
2006-03-21,-3.55, -1.05, -8.46, 3.19, 2.10, 9.12, repro,
2006-03-22,-0.18, 0.94, -12.21, 3.06, 2.02, 9.01, repro,
2006-03-23,-3.76, -0.35, -8.78, 3.08, 2.09, 9.10, repro,
2006-03-24,-4.43, -0.76, -4.95, 3.04, 2.13, 9.03, repro,
2006-03-25,-2.58, -1.28, -4.36, 3.30, 2.16, 9.36, repro,
2006-03-26,-6.21, -1.09, -7.71, 3.69, 2.44, 10.40, repro,
2006-03-27,-4.20, 0.68, -10.73, 3.10, 2.07, 9.08, repro,
2006-03-28,-2.48, -1.48, -6.02, 3.28, 2.24, 9.59, repro,
2006-03-29,-4.94, -0.03, -0.19, 3.09, 2.05, 8.99, repro,
2006-03-30,-3.95, -1.16, 0.21, 2.79, 1.92, 8.45, repro,
2006-03-31,-3.98, -0.99, -1.78, 2.91, 2.01, 8.77, repro,
2006-04-01,-5.46, -0.34, -1.76, 2.89, 1.97, 8.72, repro,
2006-04-02,-3.73, -1.54, -3.42, 2.90, 2.00, 8.68, repro,
2006-04-03,-3.18, -1.45, 5.03, 3.08, 2.07, 9.05, repro,
2006-04-04,-7.64, 1.03, -0.92, 2.96, 2.03, 9.06, repro,
2006-04-05,-0.45, -1.88, -10.41, 3.30, 2.27, 9.72, repro,
2006-04-06,-3.27, -0.14, -9.56, 3.13, 2.14, 9.48, repro,
2006-04-07,-4.49, -0.29, -9.76, 3.02, 2.05, 9.10, repro,
2006-04-08,-4.51, -1.45, -7.04, 3.04, 2.05, 9.05, repro,
2006-04-09,-3.52, -2.31, -2.35, 2.98, 2.14, 9.35, repro,
2006-04-10,-3.46, -1.70, -3.01, 2.90, 1.99, 8.83, repro,
2006-04-11,-4.06, -1.47, -2.23, 2.95, 2.10, 9.06, repro,
2006-04-12,-4.15, -0.83, 1.42, 2.79, 2.05, 8.80, repro,
2006-04-13,-5.70, -1.40, 6.29, 3.11, 2.14, 9.12, repro,
2006-04-14,-3.04, -0.64, 2.42, 3.33, 2.40, 10.22, repro,
2006-04-15,-4.06, -0.04, 3.35, 2.86, 2.00, 8.89, repro,
2006-04-16,-2.96, -1.31, 5.05, 3.01, 2.06, 8.94, repro,
2006-04-17,-3.42, -0.01, -0.81, 3.04, 2.15, 9.21, repro,
2006-04-18,-3.24, 1.88, -0.20, 2.87, 1.99, 8.78, repro,
2006-04-19,-5.86, -0.58, 8.80, 2.94, 2.02, 8.84, repro,
2006-04-20,-6.36, 1.04, 4.38, 3.18, 2.17, 9.27, repro,
2006-04-21,-2.57, -0.47, -3.10, 2.87, 1.99, 8.71, repro,
2006-04-22,-0.81, -0.43, -4.73, 3.18, 2.15, 9.44, repro,
2006-04-23,-5.24, 1.37, -6.45, 2.88, 2.01, 8.82, repro,
2006-04-24,-4.29, -0.18, -11.04, 2.78, 1.97, 8.61, repro,
2006-04-25,-2.73, -0.83, -0.47, 3.12, 2.12, 9.30, repro,
2006-04-26,-0.65, -1.79, -7.24, 3.16, 2.21, 9.55, repro,
2006-04-27,-3.36, 0.71, -6.18, 2.99, 2.06, 9.04, repro,
2006-04-28,-2.13, 0.60, -0.54, 3.01, 2.08, 9.05, repro,
2006-04-29,-2.80, -1.52, 2.60, 2.83, 1.98, 8.64, repro,
2006-04-30,-1.12, 0.08, -10.35, 2.77, 1.95, 8.63, repro,
2006-05-01,-4.78, 0.24, -8.83, 2.86, 2.01, 8.71, repro,
2006-05-02,-2.47, 0.83, -3.13, 3.14, 2.10, 9.36, repro,
2006-05-03,-3.21, 0.28, -11.31, 2.97, 2.02, 8.94, repro,
2006-05-04,-1.78, -0.43, -5.02, 2.92, 2.07, 8.94, repro,
2006-05-05,-2.49, 0.28, 7.99, 2.94, 2.04, 8.88, repro,
2006-05-06,-4.15, 0.84, -0.58, 2.89, 2.00, 8.82, repro,
2006-05-07,-3.37, -0.19, 3.72, 3.01, 2.09, 8.92, repro,
2006-05-08,-4.37, 0.42, -2.07, 3.14, 2.14, 9.54, repro,
2006-05-09,-2.02, -1.63, -8.35, 2.90, 2.06, 8.87, repro,
2006-05-10,-3.06, -1.72, -6.77, 3.13, 2.23, 9.14, repro,
2006-05-11,-6.26, 0.37, -12.55, 2.90, 2.04, 8.87, repro,
2006-05-12,-5.98, 0.31, -6.06, 2.77, 1.96, 8.55, repro,
2006-05-13,-4.73, -0.20, -2.95, 2.80, 1.96, 8.58, repro,
2006-05-14,-3.59, 0.05, -20.99, 2.95, 2.06, 9.10, repro,
2006-05-15,-3.03, -0.28, -11.39, 2.78, 2.02, 8.48, repro,
2006-05-16,-2.06, -3.27, -7.48, 2.86, 2.00, 8.93, repro,
2006-05-17,-2.20, -0.04, -3.44, 2.73, 2.01, 8.75, repro,
2006-05-18,-3.86, 0.05, -7.72, 2.92, 2.01, 8.94, repro,
2006-05-19,-6.39, 0.81, -2.56, 2.88, 2.04, 8.74, repro,
2006-05-20,-4.02, -0.87, 0.11, 2.85, 2.03, 8.65, repro,
2006-05-21,-4.08, -1.02, 2.89, 2.83, 2.05, 8.62, repro,
2006-05-22,-3.77, -3.22, 7.19, 2.79, 2.01, 8.65, repro,
2006-05-23,-4.06, -3.55, -8.86, 2.87, 2.02, 8.84, repro,
2006-05-24,-6.28, -0.57, -7.96, 2.83, 2.05, 8.58, repro,
2006-05-25,-4.55, -2.42, -8.10, 2.97, 2.15, 9.11, repro,
2006-05-26,-4.09, -3.26, -4.96, 2.89, 2.12, 8.88, repro,
2006-05-27,-3.08, -1.86, -3.50, 2.77, 2.02, 8.45, repro,
2006-05-28,-3.35, -1.90, 3.77, 2.80, 2.01, 8.58, repro,
2006-05-29,-1.91, -1.62, -5.05, 2.87, 2.01, 8.73, repro,
2006-05-30,-4.39, -0.50, -7.16, 2.95, 2.01, 8.82, repro,
2006-05-31,-3.21, -1.13, -5.63, 2.91, 2.05, 8.92, repro,
2006-06-01,-2.77, -1.16, -10.32, 3.06, 2.15, 9.29, repro,
2006-06-02,-2.22, -1.75, -3.89, 3.31, 2.30, 9.75, repro,
2006-06-03,-4.02, 0.39, -0.19, 3.29, 2.25, 9.78, repro,
2006-06-04,-5.13, -0.99, -1.33, 2.96, 2.09, 9.01, repro,
2006-06-05,-6.49, -0.57, 4.08, 3.23, 2.28, 9.82, repro,
2006-06-06,-4.56, -0.40, -5.15, 3.28, 2.27, 9.52, repro,
2006-06-07,-7.41, -1.52, 6.47, 3.02, 2.14, 9.42, repro,
2006-06-08,-5.81, -0.47, -0.32, 2.80, 2.03, 8.55, repro,
2006-06-09,-4.96, 0.86, -9.07, 2.94, 2.03, 8.84, repro,
2006-06-10,-2.03, -0.42, 0.09, 2.92, 2.05, 8.85, repro,
2006-06-11,-5.14, -0.34, 0.46, 2.99, 2.14, 8.94, repro,
2006-06-12,-3.90, 0.73, -4.68, 2.98, 2.10, 8.90, repro,
2006-06-13,-6.29, -0.29, -1.56, 3.00, 2.15, 9.17, repro,
2006-06-14,-3.54, 0.10, 9.95, 2.94, 2.04, 8.77, repro,
2006-06-15,-4.43, 0.89, 1.65, 2.99, 2.09, 9.06, repro,
2006-06-16,-5.38, 1.03, 1.80, 2.95, 2.11, 8.89, repro,
2006-06-17,-4.10, -0.64, 2.87, 2.95, 2.10, 8.90, repro,
2006-06-18,-2.93, -0.79, 7.33, 3.02, 2.16, 9.11, repro,
2006-06-19,-4.43, -0.22, -4.63, 3.05, 2.12, 9.06, repro,
2006-06-20,-3.27, 0.02, -0.47, 2.99, 2.10, 8.93, repro,
2006-06-21,-4.54, -0.37, 3.20, 3.06, 2.11, 9.16, repro,
2006-06-22,-2.62, -0.34, -0.90, 3.54, 2.43, 10.04, repro,
2006-06-23,-2.98, -1.67, -0.96, 2.92, 2.06, 8.75, repro,
2006-06-24,-3.73, -0.05, 2.46, 2.92, 2.10, 9.01, repro,
2006-06-25,-4.30, 0.01, -7.08, 3.00, 2.08, 9.04, repro,
2006-06-26,-0.47, -3.87, -3.19, 3.14, 2.18, 9.45, repro,
2006-06-27,-6.39, -0.38, 9.67, 3.90, 2.56, 10.95, repro,
2006-06-28,-4.78, 0.08, 4.87, 3.21, 2.23, 9.39, repro,
2006-06-29,-5.38, 1.69, 4.80, 3.05, 2.21, 9.14, repro,
2006-06-30,-2.80, -0.34, -1.27, 2.98, 2.08, 9.25, repro,
2006-07-01,-3.74, 0.44, 2.93, 2.91, 2.05, 9.15, repro,
2006-07-02,-3.78, -0.97, -3.43, 2.98, 2.14, 9.29, repro,
2006-07-03,-0.21, -0.50, -7.20, 2.92, 2.10, 9.04, repro,
2006-07-04,-2.67, -0.44, -3.77, 2.97, 2.10, 9.16, repro,
2006-07-05,-5.35, 2.31, -2.98, 3.05, 2.16, 9.23, repro,
2006-07-06,-3.70, -0.44, -0.68, 2.96, 2.08, 9.18, repro,
2006-07-07,1.06, -0.58, -6.67, 3.01, 2.16, 9.17, repro,
2006-07-08,-3.97, 0.18, 0.51, 2.87, 2.05, 8.92, repro,
2006-07-09,-4.02, -0.48, 9.97, 2.93, 2.05, 9.06, repro,
2006-07-10,-3.63, 1.48, 8.61, 3.39, 2.35, 10.09, repro,
2006-07-11,-1.68, 1.21, 10.37, 3.15, 2.21, 9.42, repro,
2006-07-12,-0.66, 2.85, 14.26, 2.95, 2.10, 9.18, repro,
2006-07-13,-1.68, -0.10, 5.70, 2.96, 2.09, 9.06, repro,
2006-07-14,-3.84, -0.28, 11.74, 2.92, 2.10, 8.94, repro,
2006-07-15,-4.00, -0.53, 6.95, 3.06, 2.12, 9.30, repro,
2006-07-16,-0.24, -0.36, -1.91, 3.03, 2.11, 9.07, repro,
2006-07-17,-3.43, -1.52, 2.60, 3.10, 2.21, 9.26, repro,
2006-07-18,-1.12, 0.33, 0.03, 2.87, 2.02, 8.70, repro,
2006-07-19,-3.97, 1.60, 2.92, 3.00, 2.14, 9.04, repro,
2006-07-20,-4.46, 2.15, 10.47, 2.86, 2.04, 8.76, repro,
2006-07-21,-3.03, 0.28, 7.36, 2.88, 1.99, 8.76, repro,
2006-07-22,-0.43, -0.63, -7.61, 3.00, 2.04, 8.89, repro,
2006-07-23,2.36, -2.30, 1.42, 2.80, 1.96, 8.53, repro,
2006-07-24,-1.37, -0.07, 4.29, 2.85, 1.98, 8.67, repro,
2006-07-25,-2.39, -1.36, 9.03, 2.96, 2.06, 8.91, repro,
2006-07-26,-1.86, 1.59, 5.79, 3.20, 2.18, 9.55, repro,
2006-07-27,-3.04, -1.60, 6.61, 2.87, 2.01, 8.72, repro,
2006-07-28,-1.50, -1.71, 5.80, 2.88, 2.05, 8.93, repro,
2006-07-29,-2.41, -1.00, 6.26, 2.89, 2.05, 8.65, repro,
2006-07-30,-2.40, 0.35, 3.44, 2.92, 2.06, 9.03, repro,
2006-07-31,-1.97, -0.29, 15.69, 3.19, 2.14, 9.41, repro,
2006-08-01,-4.89, 0.71, 16.42, 3.06, 2.15, 9.39, repro,
2006-08-02,-0.10, -1.05, 4.46, 3.41, 2.34, 10.05, repro,
2006-08-03,-2.84, 0.39, 7.70, 3.02, 2.15, 9.25, repro,
2006-08-04,-1.90, -0.27, 5.40, 3.07, 2.16, 9.22, repro,
2006-08-05,-1.12, -0.19, 6.99, 3.11, 2.22, 9.21, repro,
2006-08-06,-3.05, 0.74, 15.67, 3.16, 2.22, 9.53, repro,
2006-08-07,-2.55, -2.71, 3.28, 3.62, 2.47, 10.61, repro,
2006-08-08,-0.08, -2.52, 11.65, 3.07, 2.18, 9.31, repro,
2006-08-09,-4.01, -2.03, 11.69, 3.02, 2.12, 8.98, repro,
2006-08-10,-2.04, -1.97, 3.03, 3.20, 2.26, 9.29, repro,
2006-08-11,-5.14, -0.88, 11.55, 2.82, 2.01, 8.52, repro,
2006-08-12,-0.45, -0.79, 4.25, 2.85, 2.05, 8.69, repro,
2006-08-13,-2.95, -0.74, 10.48, 3.04, 2.08, 8.93, repro,
2006-08-14,-3.69, 0.79, 7.31, 3.11, 2.12, 9.10, repro,
2006-08-15,-3.43, -1.49, 19.21, 3.11, 2.20, 9.18, repro,
2006-08-16,-0.97, -0.30, 8.48, 2.91, 2.10, 8.72, repro,
2006-08-17,-2.60, -2.43, 8.35, 3.00, 2.09, 8.99, repro,
2006-08-18,-3.72, 1.36, 18.91, 3.17, 2.16, 9.17, repro,
2006-08-19,1.97, -0.22, 8.09, 3.27, 2.19, 9.56, repro,
2006-08-20,-3.28, 0.00, 14.65, 2.91, 2.06, 8.83, repro,
2006-08-21,1.85, -0.50, 16.63, 2.92, 2.11, 8.93, repro,
2006-08-22,-5.00, 0.44, 23.82, 3.29, 2.25, 9.60, repro,
2006-08-23,-1.59, 0.39, 18.17, 3.04, 2.12, 9.11, repro,
2006-08-24,-1.77, -0.58, 13.20, 3.06, 2.16, 9.51, repro,
2006-08-25,3.28, 4.24, 28.03, 2.98, 2.15, 9.20, repro,
2006-08-26,-0.83, -2.46, 1.17, 3.12, 2.25, 9.31, repro,
2006-08-27,-3.14, 0.10, 18.50, 3.13, 2.21, 9.27, repro,
2006-08-28,0.86, -0.68, 13.06, 3.40, 2.35, 10.01, repro,
2006-08-29,-0.64, -2.53, 17.90, 3.26, 2.31, 9.75, repro,
2006-08-30,-1.59, 0.60, 18.01, 2.98, 2.14, 9.04, repro,
2006-08-31,1.10, -0.44, 14.63, 3.06, 2.16, 9.18, repro,
2006-09-01,-3.26, -0.03, 11.94, 2.98, 2.19, 9.08, repro,
2006-09-02,-2.61, 1.89, 11.00, 3.06, 2.20, 9.15, repro,
2006-09-03,-1.38, -0.32, 20.36, 3.25, 2.24, 9.79, repro,
2006-09-04,-0.66, 1.69, 15.42, 3.14, 2.22, 9.56, repro,
2006-09-05,5.10, 0.23, 5.01, 3.18, 2.28, 9.63, repro,
2006-09-06,-2.90, 1.85, 23.99, 3.00, 2.14, 9.20, repro,
2006-09-07,-3.37, 1.29, 18.81, 3.36, 2.27, 9.79, repro,
2006-09-08,-1.88, 0.51, 24.75, 3.37, 2.29, 10.16, repro,
2006-09-09,-2.54, -0.13, 30.72, 2.96, 2.05, 8.97, repro,
2006-09-10,-3.44, -1.16, 25.50, 2.92, 2.07, 8.81, repro,
2006-09-11,-3.44, 0.88, 25.73, 3.18, 2.19, 9.24, repro,
2006-09-12,-4.98, 1.13, 21.47, 3.22, 2.16, 9.41, repro,
2006-09-13,0.51, -3.19, 15.04, 2.95, 2.09, 8.95, repro,
2006-09-14,-2.04, -1.90, 28.38, 3.00, 2.15, 8.96, repro,
2006-09-15,-0.93, -1.21, 13.29, 2.92, 2.11, 8.87, repro,
2006-09-16,-2.86, -0.28, 25.22, 3.00, 2.11, 9.06, repro,
2006-09-17,-6.58, 1.51, 27.59, 3.29, 2.19, 9.77, repro,
2006-09-18,-4.44, 0.67, 25.80, 3.40, 2.21, 9.71, repro,
2006-09-19,-5.14, 1.28, 24.16, 3.07, 2.20, 9.46, repro,
2006-09-20,-1.57, -0.22, 23.91, 2.93, 2.11, 9.13, repro,
2006-09-21,-5.65, 0.88, 24.29, 2.96, 2.15, 9.18, repro,
2006-09-22,1.40, 2.28, 19.74, 3.06, 2.22, 9.30, repro,
2006-09-23,2.54, -1.47, 11.72, 2.82, 2.04, 8.76, repro,
2006-09-24,-2.92, -0.26, 18.98, 3.38, 2.42, 10.32, repro,
2006-09-25,-3.46, 1.02, 19.69, 3.48, 2.35, 10.28, repro,
2006-09-26,-2.50, 0.73, 6.26, 3.22, 2.33, 9.96, repro,
2006-09-27,-2.54, 4.63, 15.35, 3.16, 2.12, 9.39, repro,
2006-09-28,2.61, 4.00, 29.10, 2.89, 2.02, 8.87, repro,
2006-09-29,-1.51, 1.75, 33.85, 2.97, 2.10, 8.98, repro,
2006-09-30,-3.24, 0.45, 27.51, 3.06, 2.14, 9.45, repro,
2006-10-01,-1.60, -1.59, 14.31, 3.27, 2.30, 9.88, repro,
2006-10-02,-4.66, 0.70, 14.99, 3.09, 2.17, 9.18, repro,
2006-10-03,-5.43, 0.76, 15.83, 3.13, 2.15, 9.44, repro,
2006-10-04,0.28, 2.06, 16.90, 2.83, 2.05, 8.69, repro,
2006-10-05,-2.01, 0.83, 21.43, 3.10, 2.22, 9.27, repro,
2006-10-06,-1.60, -2.10, 11.28, 3.07, 2.17, 9.21, repro,
2006-10-07,-0.92, -1.64, 12.25, 2.97, 2.15, 9.15, repro,